Content
SEND FEEDBACK

Daily
Averages
Monthly
Summary
United States of America

ISHPEMING, MICHIGAN


Home > North America > United States > Michigan
Elevation: 1565 feet     Latitude: 46 31N     Longitude: 087 58W

WEATHER
 
SELECT A DAY
Number of Records: 291,803;   Date Range: 1/1/95 - 9/30/14
 
SHARE

PRINT THIS DATA

[ ← Previous Day ]
WEATHER ALMANAC - JULY 30, 2014
[ Next Day → ]
[ °C ]   °F
Weather ElementAverageHighLow
Temperature54.1 °F69.8 °F (10:45 am)46.4 °F (6:50 am)
Dewpoint49.1 °F51.8 °F (8:45 am)44.6 °F (6:50 am)
Humidity85.3 %97 % (2:55 am)43 % (3:50 pm)
Barometer30.00 in30.04 in (6:45 pm)29.97 in (7:50 am)
Wind Speed3.3 mph11.5 mph (7:45 pm)
Wind Gust16.1 mph (12:45 pm)
Weather ElementAverage
Visibility9.7 mi
Wind DirectionSSW (188.9 °)

Weather ElementTotal
Precipitation---
Heating Degree Days6.9 (Base 65)
Growing Degree Days8.1 (Base 50)
Averaged from 37 records on July 30, 2014
WEATHER CONDITIONS BREAKOUT
WIND DIRECTION BREAKOUT
WEATHER BY HOUR - JULY 30, 2014
[ °C ]   °F
Local TimeTemperatureDewpointHumidityBarometerVisibilityWind DirectionWind SpeedGust SpeedPrecipitationEventsConditions
12:16 AM50.7 °F49.5 °F95 %30.00 in4.0 miCalmClear
12:35 AM51.3 °F50.4 °F97 %30.01 in7.0 miCalmClear
12:56 AM51.8 °F50.9 °F97 %30.00 in10.0 miCalmClear
1:35 AM50.9 °F49.1 °F94 %30.00 in10.0 miCalmClear
1:56 AM50.9 °F49.6 °F95 %30.00 in10.0 miCalmClear
2:15 AM49.5 °F48.2 °F95 %30.00 in7.0 miCalmClear
2:36 AM49.6 °F48.2 °F95 %30.00 in10.0 miNorth (350°)3.5 mphClear
2:56 AM49.3 °F47.8 °F95 %30.00 in10.0 miNorth (360°)3.5 mphClear
3:15 AM48.7 °F47.3 °F95 %30.00 in10.0 miNorth (350°)3.5 mphClear
3:36 AM48.7 °F47.3 °F95 %29.99 in10.0 miNorth (360°)3.5 mphClear
4:16 AM49.1 °F47.5 °F94 %30.00 in10.0 miNorth (350°)4.6 mphClear
4:36 AM48.4 °F46.9 °F95 %30.01 in10.0 miNNW (340°)4.6 mphClear
4:55 AM48.2 °F46.6 °F94 %30.01 in10.0 miNorth (350°)4.6 mphClear
5:16 AM47.8 °F46.4 °F95 %30.01 in10.0 miNorth (350°)5.8 mphClear
5:35 AM48.0 °F46.4 °F94 %30.02 in10.0 miNorth (360°)4.6 mphClear
5:56 AM47.7 °F46.0 °F94 %30.02 in10.0 miNorth (360°)4.6 mphClear
6:55 AM46.4 °F44.6 °F93 %30.03 in10.0 miCalmClear
7:55 AM50.0 °F48.2 °F94 %30.04 in10.0 miNorth (360°)3.5 mphClear
8:50 AM53.6 °F50.0 °F88 %30.04 in10.0 miCalmClear
9:55 AM60.8 °F50.0 °F68 %30.04 in10.0 miNW (320°)5.8 mphClear
10:50 AM62.6 °F48.2 °F59 %30.04 in10.0 miNNW (340°)5.8 mphClear
11:55 AM64.4 °F50.0 °F59 %30.02 in10.0 miCalmClear
12:50 PM66.2 °F48.2 °F52 %30.02 in10.0 miCalmScattered Clouds
1:45 PM66.2 °F48.2 °F52 %30.01 in10.0 miWest (280°)10.4 mphScattered Clouds
2:50 PM69.8 °F46.4 °F43 %29.98 in10.0 miSW (230°)5.8 mphMostly Cloudy
3:50 PM68.0 °F46.4 °F46 %29.98 in10.0 miWNW (290°)8.1 mph16.1 mphOvercast
5:45 PM55.4 °F51.8 °F88 %30.00 in10.0 miEast (80°)11.5 mphOvercast
6:50 PM55.4 °F51.8 °F88 %29.99 in10.0 miSSW (200°)3.5 mphScattered Clouds
7:45 PM57.2 °F51.8 °F82 %29.97 in10.0 miSouth (190°)5.8 mphScattered Clouds
8:55 PM57.2 °F51.8 °F82 %29.97 in10.0 miSW (230°)4.6 mphClear
9:45 PM55.4 °F51.8 °F88 %29.97 in10.0 miSW (220°)3.5 mphClear
10:16 PM54.7 °F51.8 °F90 %29.97 in10.0 miCalmClear
10:36 PM54.1 °F51.8 °F92 %29.97 in10.0 miCalmClear
10:55 PM53.6 °F51.4 °F92 %29.97 in10.0 miCalmClear
11:16 PM53.6 °F51.4 °F92 %29.97 in10.0 miWSW (250°)3.5 mphClear
11:36 PM52.9 °F51.1 °F94 %29.97 in10.0 miSW (230°)3.5 mphClear
11:55 PM53.6 °F51.8 °F94 %29.97 in10.0 miWSW (240°)3.5 mphClear
Hourly data recorded from KSAW, located miles away from Ishpeming, Michigan







STORIES FROM OUR PARTNERS